FW6650 Weather Reports


Display with metric or nautical units.
time (UTC)temp
F
wind
direction
speed
MPH
gust
MPH
rain 1hr
in
rain 24hr
in
rain mn
in
humidity
%
barometer
mb
20260507000036 61 0 0.0 1.0 0.00 0.00 0.00 60 1014.8
20260506235527 61 0 0.0 1.0 0.00 0.00 0.00 60 1014.9
20260506235026 61 0 0.0 2.0 0.00 0.00 0.00 59 1015.0
20260506234543 61 0 0.0 2.0 0.00 0.00 0.00 59 1015.1
20260506234026 61 66 1.0 2.0 0.00 0.00 0.00 58 1015.2
20260506233527 60 65 1.0 3.0 0.00 0.00 0.00 58 1015.2
20260506233034 60 65 1.0 3.0 0.00 0.00 0.00 58 1015.3
20260506232525 60 65 1.0 3.0 0.00 0.00 0.00 58 1015.3
20260506232027 60 64 1.0 3.0 0.00 0.00 0.00 58 1015.2
20260506231536 61 62 1.0 3.0 0.00 0.00 0.00 58 1015.4
20260506231026 60 61 1.0 3.0 0.00 0.00 0.00 58 1015.3
20260506230527 60 52 1.0 2.0 0.00 0.00 0.00 59 1015.3
20260506230034 61 0 0.0 0.0 0.00 0.00 0.00 58 1015.4
20260506225526 61 0 0.0 0.0 0.00 0.00 0.00 58 1015.3
20260506225026 61 0 0.0 0.0 0.00 0.00 0.00 59 1015.3
20260506224545 62 0 0.0 0.0 0.00 0.00 0.00 60 1015.3
20260506224027 62 0 0.0 0.0 0.00 0.00 0.00 59 1015.4
20260506223526 62 0 0.0 0.0 0.00 0.00 0.00 59 1015.5
20260506223035 62 0 0.0 0.0 0.00 0.00 0.00 59 1015.4
20260506222526 62 0 0.0 0.0 0.00 0.00 0.00 59 1015.5
20260506222027 62 0 0.0 0.0 0.00 0.00 0.00 58 1015.5
20260506221532 62 0 0.0 0.0 0.00 0.00 0.00 57 1015.5
20260506221026 63 0 0.0 0.0 0.00 0.00 0.00 56 1015.5
20260506220526 62 0 0.0 0.0 0.00 0.00 0.00 58 1015.4
20260506220038 62 0 0.0 1.0 0.00 0.00 0.00 57 1015.5
20260506215526 62 0 0.0 1.0 0.00 0.00 0.00 57 1015.6
20260506215025 62 0 0.0 2.0 0.00 0.00 0.00 58 1015.5
20260506214539 62 0 0.0 2.0 0.00 0.00 0.00 57 1015.6
20260506214027 62 24 1.0 2.0 0.00 0.00 0.00 57 1015.7
20260506213526 62 24 0.0 2.0 0.00 0.00 0.00 56 1015.7
20260506213035 63 0 0.0 0.0 0.00 0.00 0.00 55 1015.9
20260506212529 63 0 0.0 1.0 0.00 0.00 0.00 56 1015.8
20260506212030 63 0 0.0 1.0 0.00 0.00 0.00 55 1015.9
20260506211538 63 0 0.0 2.0 0.00 0.00 0.00 54 1015.9
20260506211026 63 0 0.0 3.0 0.00 0.00 0.00 54 1015.9
20260506210527 63 22 1.0 3.0 0.00 0.00 0.00 54 1015.9
20260506210040 63 16 1.0 2.0 0.00 0.00 0.00 54 1016.0
20260506205526 63 10 1.0 2.0 0.00 0.00 0.00 54 1016.1
20260506205026 63 360 0.0 2.0 0.00 0.00 0.00 53 1016.1
20260506204549 63 5 0.0 2.0 0.00 0.00 0.00 53 1016.0
20260506204025 64 5 0.0 2.0 0.00 0.00 0.00 53 1016.0
20260506203525 64 5 0.0 2.0 0.00 0.00 0.00 53 1016.0
20260506203037 64 0 0.0 2.0 0.00 0.00 0.00 53 1016.1
20260506202526 64 0 0.0 2.0 0.00 0.00 0.00 54 1016.1
20260506202029 64 9 0.0 2.0 0.00 0.00 0.00 54 1016.0
20260506201539 64 360 1.0 2.0 0.00 0.00 0.00 54 1015.9
20260506201026 64 360 1.0 2.0 0.00 0.00 0.00 54 1016.0
20260506200526 64 360 0.0 2.0 0.00 0.00 0.00 53 1015.9
20260506200036 65 0 0.0 1.0 0.00 0.00 0.00 54 1015.8
20260506195526 65 0 0.0 1.0 0.00 0.00 0.00 53 1015.8
20260506195026 65 0 0.0 1.0 0.00 0.00 0.00 53 1015.8
20260506194537 65 0 0.0 2.0 0.00 0.00 0.00 53 1015.7
20260506194023 66 0 0.0 2.0 0.00 0.00 0.00 52 1015.7
20260506193527 66 360 1.0 2.0 0.00 0.00 0.00 52 1015.6
20260506193035 66 355 0.0 2.0 0.00 0.00 0.00 52 1015.5
20260506192526 67 0 0.0 0.0 0.00 0.00 0.00 49 1015.5
20260506192026 67 0 0.0 0.0 0.00 0.00 0.00 49 1015.4
20260506191536 67 0 0.0 0.0 0.00 0.00 0.00 49 1015.4
20260506191026 67 0 0.0 0.0 0.00 0.00 0.00 49 1015.3
20260506190526 67 0 0.0 1.0 0.00 0.00 0.00 49 1015.3
20260506190035 67 0 0.0 2.0 0.00 0.00 0.00 48 1015.3
20260506185526 67 0 0.0 2.0 0.00 0.00 0.00 47 1015.3
20260506185026 67 355 0.0 2.0 0.00 0.00 0.00 46 1015.3
20260506184541 68 0 0.0 3.0 0.00 0.00 0.00 46 1015.2
20260506184023 68 0 0.0 3.0 0.00 0.00 0.00 46 1015.1
20260506183526 68 355 0.0 3.0 0.00 0.00 0.00 45 1015.1
20260506183033 68 355 0.0 2.0 0.00 0.00 0.00 45 1015.0
20260506182525 68 355 0.0 3.0 0.00 0.00 0.00 45 1014.9
20260506182025 68 355 1.0 3.0 0.00 0.00 0.00 45 1014.9
20260506181536 68 355 1.0 3.0 0.00 0.00 0.00 45 1014.8
20260506181026 68 323 1.0 3.0 0.00 0.00 0.00 44 1014.9
20260506180526 69 319 2.0 4.0 0.00 0.00 0.00 43 1014.7
20260506180036 69 317 2.0 4.0 0.00 0.00 0.00 42 1014.8
20260506175526 69 316 1.0 4.0 0.00 0.00 0.00 42 1014.7
20260506175028 69 315 2.0 4.0 0.00 0.00 0.00 41 1014.7
20260506174535 69 315 2.0 3.0 0.00 0.00 0.00 42 1014.7
20260506174028 69 314 1.0 3.0 0.00 0.00 0.00 41 1014.5
20260506173526 70 314 1.0 4.0 0.00 0.00 0.00 41 1014.5
20260506173049 70 314 1.0 4.0 0.00 0.00 0.00 40 1014.4
20260506172527 70 315 2.0 5.0 0.00 0.00 0.00 40 1014.5
20260506172026 70 315 2.0 5.0 0.00 0.00 0.00 40 1014.4
20260506171542 70 311 3.0 4.0 0.00 0.00 0.00 40 1014.4
20260506171026 70 306 1.0 5.0 0.00 0.00 0.00 39 1014.4
20260506170526 71 304 3.0 5.0 0.00 0.00 0.00 38 1014.4
20260506170043 71 309 0.0 5.0 0.00 0.00 0.00 38 1014.3
20260506165525 71 309 2.0 5.0 0.00 0.00 0.00 38 1014.4
20260506165027 71 313 2.0 10.0 0.00 0.00 0.00 38 1014.4
20260506164545 71 306 2.0 11.0 0.00 0.00 0.00 38 1014.3
20260506164028 72 252 5.0 11.0 0.00 0.00 0.00 37 1014.4
20260506163527 72 294 5.0 11.0 0.00 0.00 0.00 37 1014.4
20260506163033 72 254 3.0 10.0 0.00 0.00 0.00 37 1014.3
20260506162529 72 267 3.0 10.0 0.00 0.00 0.00 37 1014.4
20260506162026 72 279 5.0 10.0 0.00 0.00 0.00 36 1014.4
20260506161539 73 292 4.0 10.0 0.00 0.00 0.00 36 1014.3
20260506161026 73 271 4.0 10.0 0.00 0.00 0.00 36 1014.2
20260506160526 73 288 3.0 8.0 0.00 0.00 0.00 36 1014.1
20260506160045 73 279 4.0 11.0 0.00 0.00 0.00 36 1014.1
20260506155525 73 272 4.0 11.0 0.00 0.00 0.00 36 1014.3
20260506155026 73 258 7.0 11.0 0.00 0.00 0.00 36 1014.3
20260506154536 73 260 3.0 11.0 0.00 0.00 0.00 37 1014.3
20260506154026 73 261 6.0 13.0 0.00 0.00 0.00 37 1014.3
20260506153527 73 278 8.0 13.0 0.00 0.00 0.00 37 1014.5
20260506153035 74 237 6.0 10.0 0.00 0.00 0.00 37 1014.3
20260506152525 74 269 5.0 10.0 0.00 0.00 0.00 38 1014.4
20260506152025 74 252 5.0 10.0 0.00 0.00 0.00 39 1014.4
20260506151545 74 220 5.0 11.0 0.00 0.00 0.00 38 1014.4
20260506151026 74 261 7.0 11.0 0.00 0.00 0.00 38 1014.5
20260506150525 74 253 4.0 12.0 0.00 0.00 0.00 39 1014.5
20260506150033 74 242 6.0 12.0 0.00 0.00 0.00 38 1014.5
20260506145526 74 235 8.0 11.0 0.00 0.00 0.00 38 1014.4
20260506145025 74 261 6.0 13.0 0.00 0.00 0.00 38 1014.5
20260506144539 75 257 5.0 13.0 0.00 0.00 0.00 38 1014.5
20260506144036 75 238 4.0 10.0 0.00 0.00 0.00 39 1014.4
20260506143527 75 223 4.0 11.0 0.00 0.00 0.00 39 1014.5
20260506143045 75 254 5.0 13.0 0.00 0.00 0.00 39 1014.6
20260506142525 75 267 8.0 13.0 0.00 0.00 0.00 39 1014.4
20260506142025 75 271 4.0 12.0 0.00 0.00 0.00 40 1014.4
20260506141537 75 250 5.0 12.0 0.00 0.00 0.00 38 1014.5
20260506141025 75 261 4.0 12.0 0.00 0.00 0.00 38 1014.5
20260506140525 75 225 5.0 12.0 0.00 0.00 0.00 36 1014.4
20260506140038 75 230 6.0 12.0 0.00 0.00 0.00 38 1014.5
20260506135528 75 235 6.0 13.0 0.00 0.00 0.00 38 1014.6
20260506135025 75 246 6.0 13.0 0.00 0.00 0.00 37 1014.6
20260506134535 75 215 6.0 11.0 0.00 0.00 0.00 36 1014.6
20260506134025 76 227 6.0 11.0 0.00 0.00 0.00 37 1014.6
20260506133526 76 255 5.0 11.0 0.00 0.00 0.00 37 1014.6
20260506133040 76 275 5.0 11.0 0.00 0.00 0.00 36 1014.6
20260506132525 76 234 5.0 11.0 0.00 0.00 0.00 36 1014.6
20260506132026 76 267 6.0 12.0 0.00 0.00 0.00 35 1014.5
20260506131533 76 263 5.0 12.0 0.00 0.00 0.00 35 1014.6
20260506131028 76 267 5.0 11.0 0.00 0.00 0.00 35 1014.6
20260506130528 76 218 4.0 12.0 0.00 0.00 0.00 35 1014.5
20260506130033 76 254 5.0 12.0 0.00 0.00 0.00 34 1014.5
20260506125525 76 249 5.0 11.0 0.00 0.00 0.00 34 1014.5
20260506125025 76 219 4.0 12.0 0.00 0.00 0.00 35 1014.6
20260506124533 76 239 6.0 12.0 0.00 0.00 0.00 34 1014.7
20260506124025 76 238 5.0 11.0 0.00 0.00 0.00 34 1014.6
20260506123525 76 237 5.0 12.0 0.00 0.00 0.00 35 1014.7
20260506123036 76 261 4.0 12.0 0.00 0.00 0.00 34 1014.7
20260506122525 76 235 6.0 15.0 0.00 0.00 0.00 34 1014.9
20260506122025 76 227 8.0 16.0 0.00 0.00 0.00 34 1014.9
20260506121541 76 177 8.0 16.0 0.00 0.00 0.00 34 1014.9
20260506121025 76 239 6.0 15.0 0.00 0.00 0.00 34 1014.9
20260506120526 76 229 10.0 15.0 0.00 0.00 0.00 35 1014.9
20260506120033 76 211 6.0 15.0 0.00 0.00 0.00 36 1014.9
20260506115526 76 252 8.0 14.0 0.00 0.00 0.00 37 1014.9
20260506115025 76 227 5.0 15.0 0.00 0.00 0.00 36 1015.0
20260506114542 76 225 9.0 15.0 0.00 0.00 0.00 34 1014.9
20260506114025 76 278 5.0 12.0 0.00 0.00 0.00 34 1014.9
20260506113525 76 198 6.0 13.0 0.00 0.00 0.00 34 1015.0
20260506113033 77 157 5.0 13.0 0.00 0.00 0.00 36 1015.0
20260506112527 77 252 6.0 12.0 0.00 0.00 0.00 37 1015.0
20260506112026 76 221 7.0 16.0 0.00 0.00 0.00 37 1015.0
20260506111534 75 182 7.0 16.0 0.00 0.00 0.00 39 1015.0
20260506111026 76 233 4.0 15.0 0.00 0.00 0.00 38 1015.0
20260506110525 76 231 8.0 15.0 0.00 0.00 0.00 38 1015.1
20260506110046 76 212 9.0 15.0 0.00 0.00 0.00 38 1015.1
20260506105526 76 225 5.0 15.0 0.00 0.00 0.00 37 1015.1
20260506105024 76 217 9.0 15.0 0.00 0.00 0.00 37 1015.1
20260506104534 76 232 8.0 14.0 0.00 0.00 0.00 38 1015.1
20260506104025 77 234 3.0 13.0 0.00 0.00 0.00 37 1015.1
20260506103525 75 246 8.0 13.0 0.00 0.00 0.00 37 1015.1
20260506103037 75 242 4.0 12.0 0.00 0.00 0.00 39 1015.0
20260506102526 76 233 6.0 11.0 0.00 0.00 0.00 39 1015.2
20260506102026 75 215 6.0 11.0 0.00 0.00 0.00 39 1015.2
20260506101549 75 205 5.0 12.0 0.00 0.00 0.00 39 1015.2
20260506101025 74 238 6.0 14.0 0.00 0.00 0.00 40 1015.3
20260506100527 75 217 6.0 14.0 0.00 0.00 0.00 39 1015.4
20260506100039 75 234 6.0 13.0 0.00 0.00 0.00 40 1015.3
20260506095525 75 280 5.0 15.0 0.00 0.00 0.00 39 1015.3
20260506095024 74 241 5.0 15.0 0.00 0.00 0.00 38 1015.3
20260506094547 75 240 5.0 15.0 0.00 0.00 0.00 39 1015.3
20260506094025 75 209 5.0 12.0 0.00 0.00 0.00 40 1015.4
20260506093525 74 244 7.0 11.0 0.00 0.00 0.00 39 1015.3
20260506093036 74 213 3.0 11.0 0.00 0.00 0.00 40 1015.4
20260506092526 74 221 5.0 11.0 0.00 0.00 0.00 39 1015.3
20260506092026 74 267 5.0 11.0 0.00 0.00 0.00 40 1015.4
20260506091536 74 210 5.0 9.0 0.00 0.00 0.00 41 1015.4
20260506091022 74 244 4.0 10.0 0.00 0.00 0.00 41 1015.5
20260506090526 73 229 4.0 10.0 0.00 0.00 0.00 41 1015.4
20260506090035 73 270 5.0 10.0 0.00 0.00 0.00 42 1015.5
20260506085525 73 240 5.0 9.0 0.00 0.00 0.00 42 1015.4
20260506085025 73 244 4.0 8.0 0.00 0.00 0.00 43 1015.3
20260506084536 73 252 3.0 9.0 0.00 0.00 0.00 42 1015.3
20260506084025 73 227 4.0 9.0 0.00 0.00 0.00 43 1015.4
20260506083527 73 242 3.0 8.0 0.00 0.00 0.00 43 1015.3
20260506083040 73 212 3.0 11.0 0.00 0.00 0.00 43 1015.3
20260506082524 72 213 5.0 11.0 0.00 0.00 0.00 44 1015.3
20260506082026 72 271 6.0 11.0 0.00 0.00 0.00 44 1015.3
20260506081537 72 225 6.0 10.0 0.00 0.00 0.00 43 1015.4
20260506081022 72 242 6.0 11.0 0.00 0.00 0.00 43 1015.3
20260506080522 72 267 4.0 12.0 0.00 0.00 0.00 43 1015.4
20260506073527 71 265 5.0 10.0 0.00 0.00 0.00 43 1015.1
20260506073042 71 244 4.0 7.0 0.00 0.00 0.00 44 1015.1
20260506072527 70 221 2.0 8.0 0.00 0.00 0.00 43 1015.0
20260506072027 70 269 3.0 8.0 0.00 0.00 0.00 43 1015.0
20260506071557 70 246 5.0 8.0 0.00 0.00 0.00 43 1015.0
20260506071027 70 242 2.0 7.0 0.00 0.00 0.00 44 1015.0
20260506070527 70 182 3.0 7.0 0.00 0.00 0.00 43 1014.9
20260506062027 68 259 4.0 7.0 0.00 0.00 0.00 46 1014.9
20260506061536 68 269 2.0 7.0 0.00 0.00 0.00 47 1014.9
20260506061028 68 222 2.0 7.0 0.00 0.00 0.00 48 1014.9
20260506060531 68 198 2.0 6.0 0.00 0.00 0.00 48 1014.8
20260506051027 64 163 1.0 4.0 0.00 0.00 0.00 54 1014.7
20260506050530 63 164 2.0 4.0 0.00 0.00 0.00 54 1014.6
20260506045026 63 0 0.0 3.0 0.00 0.00 0.00 55 1014.5
20260506044536 62 167 1.0 3.0 0.00 0.00 0.00 57 1014.6
20260506044028 62 167 1.0 4.0 0.00 0.00 0.00 59 1014.5
20260506043527 61 167 2.0 5.0 0.00 0.00 0.00 59 1014.5
20260506043035 61 167 3.0 5.0 0.00 0.00 0.00 59 1014.4
20260506042527 60 170 3.0 5.0 0.00 0.00 0.00 60 1014.5
20260506042029 60 172 3.0 5.0 0.00 0.00 0.00 61 1014.5
20260506041548 60 174 1.0 3.0 0.00 0.00 0.00 60 1014.5
20260506041027 59 174 2.0 3.0 0.00 0.00 0.00 61 1014.4
20260506040527 59 174 2.0 5.0 0.00 0.00 0.00 61 1014.3
20260506040038 59 174 2.0 5.0 0.00 0.00 0.00 61 1014.3
20260506035527 59 176 2.0 4.0 0.00 0.00 0.00 61 1014.3
20260506035029 60 178 2.0 4.0 0.00 0.00 0.00 61 1014.0
20260506034536 60 178 0.0 3.0 0.00 0.00 0.00 60 1014.0
20260506034031 60 0 0.0 4.0 0.00 0.00 0.00 59 1013.9
20260506033527 60 178 2.0 5.0 0.00 0.00 0.00 59 1013.9
20260506033039 60 184 2.0 5.0 0.00 0.00 0.00 60 1013.9
20260506032527 60 175 3.0 6.0 0.00 0.00 0.00 60 1013.8
20260506032027 60 192 2.0 9.0 0.00 0.00 0.00 61 1013.8
20260506031534 60 219 3.0 9.0 0.00 0.00 0.00 60 1013.8
20260506031027 59 219 3.0 9.0 0.00 0.00 0.00 62 1013.8
20260506030526 59 178 1.0 3.0 0.00 0.00 0.00 64 1013.6
20260506030034 59 178 1.0 6.0 0.00 0.00 0.00 64 1013.6
20260506025527 59 192 1.0 7.0 0.00 0.00 0.00 62 1013.7
20260506025026 60 192 4.0 7.0 0.00 0.00 0.00 61 1013.7
20260506024539 59 175 1.0 5.0 0.00 0.00 0.00 62 1013.9
20260506024027 60 180 2.0 6.0 0.00 0.00 0.00 62 1013.8
20260506023527 59 186 3.0 6.0 0.00 0.00 0.00 63 1013.8
20260506023041 59 180 4.0 6.0 0.00 0.00 0.00 63 1013.8
20260506022527 59 175 2.0 6.0 0.00 0.00 0.00 63 1013.9
20260506022027 60 173 3.0 6.0 0.00 0.00 0.00 62 1013.9
20260506021538 60 173 2.0 6.0 0.00 0.00 0.00 62 1013.9
20260506021027 61 202 3.0 6.0 0.00 0.00 0.00 61 1014.0
20260506020527 60 177 3.0 5.0 0.00 0.00 0.00 61 1013.9
20260506020036 60 202 3.0 6.0 0.00 0.00 0.00 62 1014.0
20260506015530 60 181 3.0 6.0 0.00 0.00 0.00 61 1014.0
20260506015028 60 175 3.0 7.0 0.00 0.00 0.00 62 1014.0
20260506014544 60 183 3.0 7.0 0.00 0.00 0.00 62 1014.1
20260506014027 60 171 4.0 8.0 0.00 0.00 0.00 62 1014.0
20260506013526 59 171 4.0 8.0 0.00 0.00 0.00 63 1014.1
20260506013036 59 191 3.0 7.0 0.00 0.00 0.00 63 1014.1
20260506012526 59 170 4.0 7.0 0.00 0.00 0.00 63 1014.0
20260506012030 59 169 4.0 6.0 0.00 0.00 0.00 63 1014.1
20260506011543 59 172 2.0 5.0 0.00 0.00 0.00 63 1014.1
20260506011027 59 175 2.0 5.0 0.00 0.00 0.00 62 1014.1
20260506010528 59 172 3.0 5.0 0.00 0.00 0.00 63 1014.1
20260506010037 59 181 2.0 4.0 0.00 0.00 0.00 62 1014.1
20260506005527 59 196 1.0 4.0 0.00 0.00 0.00 62 1014.1
20260506005029 59 196 1.0 4.0 0.00 0.00 0.00 62 1014.2
20260506004542 59 0 1.0 3.0 0.00 0.00 0.00 62 1014.2
20260506004026 59 0 1.0 4.0 0.00 0.00 0.00 62 1014.2
20260506003526 60 196 2.0 4.0 0.00 0.00 0.00 62 1014.2
20260506003034 60 196 2.0 5.0 0.00 0.00 0.00 62 1014.2
20260506002526 60 193 3.0 5.0 0.00 0.00 0.00 63 1014.2
20260506002026 60 192 2.0 5.0 0.00 0.00 0.00 63 1014.3
20260506001604 60 196 2.0 5.0 0.00 0.00 0.00 62 1014.3
20260506001027 60 207 3.0 7.0 0.00 0.00 0.00 62 1014.2
20260506000527 60 217 3.0 7.0 0.00 0.00 0.00 62 1014.1